owner,sensor,date,latitude,longitude,vertical_datum,sea_water_practical_salinity,qcFlag 
DISL,ioos:station:DISL:MHPA:1,2013-01-01T06:30:00Z,30.6671,-87.9365,4.436,0.15,1111122 
DISL,ioos:station:DISL:MHPA:1,2013-01-01T07:00:00Z,30.6671,-87.9365,4.345,0.14,1111122 
DISL,ioos:station:DISL:MHPA:1,2013-01-01T07:30:00Z,30.6671,-87.9365,4.328,0.14,1111122 
DISL,ioos:station:DISL:MHPA:1,2013-01-01T08:00:00Z,30.6671,-87.9365,4.31,0.14,1111122 
DISL,ioos:station:DISL:MHPA:1,2013-01-01T08:30:00Z,30.6671,-87.9365,4.297,0.15,1111122 
DISL,ioos:station:DISL:MHPA:1,2013-01-01T09:00:00Z,30.6671,-87.9365,4.251,0.16,1111122 
DISL,ioos:station:DISL:MHPA:1,2013-01-01T09:30:00Z,30.6671,-87.9365,4.214,0.15,1111122 
DISL,ioos:station:DISL:MHPA:1,2013-01-01T10:00:00Z,30.6671,-87.9365,4.22,0.15,1111122 
DISL,ioos:station:DISL:MHPA:1,2013-01-01T10:30:00Z,30.6671,-87.9365,4.138,0.16,1111122 
DISL,ioos:station:DISL:MHPA:1,2013-01-01T11:00:00Z,30.6671,-87.9365,4.03,0.16,1111122 
DISL,ioos:station:DISL:MHPA:1,2013-01-01T11:30:00Z,30.6671,-87.9365,3.936,0.15,1111122 
DISL,ioos:station:DISL:MHPA:1,2013-01-01T12:00:00Z,30.6671,-87.9365,3.818,0.16,1111122 
DISL,ioos:station:DISL:MHPA:1,2013-01-01T12:30:00Z,30.6671,-87.9365,3.733,0.16,1111122 
DISL,ioos:station:DISL:MHPA:1,2013-01-01T13:00:00Z,30.6671,-87.9365,3.596,0.15,1111122 
DISL,ioos:station:DISL:MHPA:1,2013-01-01T13:30:00Z,30.6671,-87.9365,3.495,0.15,1111122 
DISL,ioos:station:DISL:MHPA:1,2013-01-01T14:00:00Z,30.6671,-87.9365,3.437,0.14,1111122 
DISL,ioos:station:DISL:MHPA:1,2013-01-01T14:30:00Z,30.6671,-87.9365,3.377,0.14,1111122 
DISL,ioos:station:DISL:MHPA:1,2013-01-01T15:00:00Z,30.6671,-87.9365,3.327,0.15,1111122 
DISL,ioos:station:DISL:MHPA:1,2013-01-01T15:30:00Z,30.6671,-87.9365,3.31,0.15,1111122 
DISL,ioos:station:DISL:MHPA:1,2013-01-01T16:00:00Z,30.6671,-87.9365,3.338,0.15,1111122 
DISL,ioos:station:DISL:MHPA:1,2013-01-01T16:30:00Z,30.6671,-87.9365,3.363,0.15,1111122 
DISL,ioos:station:DISL:MHPA:1,2013-01-01T17:00:00Z,30.6671,-87.9365,3.34,0.16,1111122 
DISL,ioos:station:DISL:MHPA:1,2013-01-01T17:30:00Z,30.6671,-87.9365,3.303,0.15,1111122 
DISL,ioos:station:DISL:MHPA:1,2013-01-01T18:00:00Z,30.6671,-87.9365,3.332,0.16,1111122 
DISL,ioos:station:DISL:MHPA:1,2013-01-01T18:30:00Z,30.6671,-87.9365,3.36,0.16,1111122 
DISL,ioos:station:DISL:MHPA:1,2013-01-01T19:00:00Z,30.6671,-87.9365,3.38,0.15,1111122 
DISL,ioos:station:DISL:MHPA:1,2013-01-01T19:30:00Z,30.6671,-87.9365,3.461,0.15,1111122 
DISL,ioos:station:DISL:MHPA:1,2013-01-01T20:00:00Z,30.6671,-87.9365,3.556,0.13,1111122 
DISL,ioos:station:DISL:MHPA:1,2013-01-01T20:30:00Z,30.6671,-87.9365,3.625,0.15,1111122 
DISL,ioos:station:DISL:MHPA:1,2013-01-01T21:00:00Z,30.6671,-87.9365,3.675,0.15,1111122 
DISL,ioos:station:DISL:MHPA:1,2013-01-01T21:30:00Z,30.6671,-87.9365,3.764,0.14,1111122 
DISL,ioos:station:DISL:MHPA:1,2013-01-01T22:00:00Z,30.6671,-87.9365,3.826,0.15,1111122 
DISL,ioos:station:DISL:MHPA:1,2013-01-01T22:30:00Z,30.6671,-87.9365,3.807,0.14,1111122 
DISL,ioos:station:DISL:MHPA:1,2013-01-01T23:00:00Z,30.6671,-87.9365,3.952,0.14,1111122 
DISL,ioos:station:DISL:MHPA:1,2013-01-01T23:30:00Z,30.6671,-87.9365,3.988,0.13,1111122 
DISL,ioos:station:DISL:MHPA:1,2013-01-02T00:00:00Z,30.6671,-87.9365,3.977,0.12,1111122 
DISL,ioos:station:DISL:MHPA:1,2013-01-02T00:30:00Z,30.6671,-87.9365,4.031,0.12,1111122 
DISL,ioos:station:DISL:MHPA:1,2013-01-02T01:00:00Z,30.6671,-87.9365,4.021,0.12,1111122 
DISL,ioos:station:DISL:MHPA:1,2013-01-02T01:30:00Z,30.6671,-87.9365,4.002,0.11,1111122 
DISL,ioos:station:DISL:MHPA:1,2013-01-02T02:00:00Z,30.6671,-87.9365,3.935,0.11,1111122 
DISL,ioos:station:DISL:MHPA:1,2013-01-02T02:30:00Z,30.6671,-87.9365,3.966,0.11,1111122 
DISL,ioos:station:DISL:MHPA:1,2013-01-02T03:00:00Z,30.6671,-87.9365,3.961,0.11,1111122 
DISL,ioos:station:DISL:MHPA:1,2013-01-02T03:30:00Z,30.6671,-87.9365,3.967,0.11,1111122 
DISL,ioos:station:DISL:MHPA:1,2013-01-02T04:00:00Z,30.6671,-87.9365,3.973,0.1,1111122 
DISL,ioos:station:DISL:MHPA:1,2013-01-02T04:30:00Z,30.6671,-87.9365,3.926,0.1,1111122 
DISL,ioos:station:DISL:MHPA:1,2013-01-02T05:00:00Z,30.6671,-87.9365,3.856,0.1,1111122 
DISL,ioos:station:DISL:MHPA:1,2013-01-02T05:30:00Z,30.6671,-87.9365,3.918,0.1,1111122 
DISL,ioos:station:DISL:MHPA:1,2013-01-02T06:00:00Z,30.6671,-87.9365,3.829,0.1,1111122 
DISL,ioos:station:DISL:MHPA:1,2013-01-02T06:30:00Z,30.6671,-87.9365,3.778,0.1,1111122 
DISL,ioos:station:DISL:MHPA:1,2013-01-02T07:00:00Z,30.6671,-87.9365,3.728,0.1,1111122 
DISL,ioos:station:DISL:MHPA:1,2013-01-02T07:30:00Z,30.6671,-87.9365,3.705,0.1,1111122 
DISL,ioos:station:DISL:MHPA:1,2013-01-02T08:00:00Z,30.6671,-87.9365,3.671,0.1,1111122 
DISL,ioos:station:DISL:MHPA:1,2013-01-02T08:30:00Z,30.6671,-87.9365,3.478,0.1,1111122 
DISL,ioos:station:DISL:MHPA:1,2013-01-02T09:00:00Z,30.6671,-87.9365,3.357,0.1,1111122 
DISL,ioos:station:DISL:MHPA:1,2013-01-02T09:30:00Z,30.6671,-87.9365,3.278,0.1,1111122 
DISL,ioos:station:DISL:MHPA:1,2013-01-02T10:00:00Z,30.6671,-87.9365,3.174,0.1,1111122 
DISL,ioos:station:DISL:MHPA:1,2013-01-02T10:30:00Z,30.6671,-87.9365,3.042,0.1,1111122 
DISL,ioos:station:DISL:MHPA:1,2013-01-02T11:00:00Z,30.6671,-87.9365,2.93,0.1,1111122 
DISL,ioos:station:DISL:MHPA:1,2013-01-02T11:30:00Z,30.6671,-87.9365,2.872,0.1,1111122 
DISL,ioos:station:DISL:MHPA:1,2013-01-02T12:00:00Z,30.6671,-87.9365,2.808,0.1,1111122 
DISL,ioos:station:DISL:MHPA:1,2013-01-02T12:30:00Z,30.6671,-87.9365,2.76,0.1,1111122 
DISL,ioos:station:DISL:MHPA:1,2013-01-02T13:00:00Z,30.6671,-87.9365,2.741,0.1,1111122 
DISL,ioos:station:DISL:MHPA:1,2013-01-02T13:30:00Z,30.6671,-87.9365,2.724,0.1,1111122 
DISL,ioos:station:DISL:MHPA:1,2013-01-02T14:00:00Z,30.6671,-87.9365,2.688,0.1,1111122 
DISL,ioos:station:DISL:MHPA:1,2013-01-02T14:30:00Z,30.6671,-87.9365,2.614,0.1,1111122 
DISL,ioos:station:DISL:MHPA:1,2013-01-02T15:00:00Z,30.6671,-87.9365,2.528,0.1,1111122 
DISL,ioos:station:DISL:MHPA:1,2013-01-02T15:30:00Z,30.6671,-87.9365,2.483,0.1,1111122 
DISL,ioos:station:DISL:MHPA:1,2013-01-02T16:00:00Z,30.6671,-87.9365,2.451,0.1,1111122 
DISL,ioos:station:DISL:MHPA:1,2013-01-02T16:30:00Z,30.6671,-87.9365,2.418,0.1,1111122 
DISL,ioos:station:DISL:MHPA:1,2013-01-02T17:00:00Z,30.6671,-87.9365,2.397,0.1,1111122 
DISL,ioos:station:DISL:MHPA:1,2013-01-02T17:30:00Z,30.6671,-87.9365,2.392,0.1,1111122 
DISL,ioos:station:DISL:MHPA:1,2013-01-02T18:00:00Z,30.6671,-87.9365,2.378,0.1,1111122 
DISL,ioos:station:DISL:MHPA:1,2013-01-02T18:30:00Z,30.6671,-87.9365,2.386,0.1,1111122 
DISL,ioos:station:DISL:MHPA:1,2013-01-02T19:00:00Z,30.6671,-87.9365,2.416,0.1,1111122 
DISL,ioos:station:DISL:MHPA:1,2013-01-02T19:30:00Z,30.6671,-87.9365,2.458,0.1,1111122 
DISL,ioos:station:DISL:MHPA:1,2013-01-02T20:00:00Z,30.6671,-87.9365,2.581,0.1,1111122 
DISL,ioos:station:DISL:MHPA:1,2013-01-02T20:30:00Z,30.6671,-87.9365,2.685,0.1,1111122 
DISL,ioos:station:DISL:MHPA:1,2013-01-02T21:00:00Z,30.6671,-87.9365,2.709,0.1,1111122 
DISL,ioos:station:DISL:MHPA:1,2013-01-02T21:30:00Z,30.6671,-87.9365,2.757,0.1,1111122 
DISL,ioos:station:DISL:MHPA:1,2013-01-02T22:00:00Z,30.6671,-87.9365,2.912,0.1,1111122 
DISL,ioos:station:DISL:MHPA:1,2013-01-02T22:30:00Z,30.6671,-87.9365,2.986,0.1,1111122 
DISL,ioos:station:DISL:MHPA:1,2013-01-02T23:00:00Z,30.6671,-87.9365,3.006,0.1,1111122 
DISL,ioos:station:DISL:MHPA:1,2013-01-02T23:30:00Z,30.6671,-87.9365,3.06,0.1,1111122 
DISL,ioos:station:DISL:MHPA:1,2013-01-03T00:00:00Z,30.6671,-87.9365,3.149,0.1,1111122 
DISL,ioos:station:DISL:MHPA:1,2013-01-03T00:30:00Z,30.6671,-87.9365,3.186,0.1,1111122 
DISL,ioos:station:DISL:MHPA:1,2013-01-03T01:00:00Z,30.6671,-87.9365,3.169,0.1,1111122 
DISL,ioos:station:DISL:MHPA:1,2013-01-03T01:30:00Z,30.6671,-87.9365,3.127,0.1,1111122 
DISL,ioos:station:DISL:MHPA:1,2013-01-03T02:00:00Z,30.6671,-87.9365,3.123,0.1,1111122 
DISL,ioos:station:DISL:MHPA:1,2013-01-03T02:30:00Z,30.6671,-87.9365,3.078,0.1,1111122 
DISL,ioos:station:DISL:MHPA:1,2013-01-03T03:00:00Z,30.6671,-87.9365,3.017,0.1,1111122 
DISL,ioos:station:DISL:MHPA:1,2013-01-03T03:30:00Z,30.6671,-87.9365,2.962,0.1,1111122 
DISL,ioos:station:DISL:MHPA:1,2013-01-03T04:00:00Z,30.6671,-87.9365,2.934,0.1,1111122 
DISL,ioos:station:DISL:MHPA:1,2013-01-03T04:30:00Z,30.6671,-87.9365,2.91,0.1,1111122 
DISL,ioos:station:DISL:MHPA:1,2013-01-03T05:00:00Z,30.6671,-87.9365,2.885,0.1,1111122 
DISL,ioos:station:DISL:MHPA:1,2013-01-03T05:30:00Z,30.6671,-87.9365,2.911,0.1,1111122 
DISL,ioos:station:DISL:MHPA:1,2013-01-03T06:00:00Z,30.6671,-87.9365,2.946,0.1,1111122 
DISL,ioos:station:DISL:MHPA:1,2013-01-03T06:30:00Z,30.6671,-87.9365,2.977,0.1,1111122 
DISL,ioos:station:DISL:MHPA:1,2013-01-03T07:00:00Z,30.6671,-87.9365,2.964,0.1,1111122 
DISL,ioos:station:DISL:MHPA:1,2013-01-03T07:30:00Z,30.6671,-87.9365,2.966,0.1,1111122 
DISL,ioos:station:DISL:MHPA:1,2013-01-03T08:00:00Z,30.6671,-87.9365,3.017,0.1,1111122 
DISL,ioos:station:DISL:MHPA:1,2013-01-03T08:30:00Z,30.6671,-87.9365,3.075,0.1,1111122 
DISL,ioos:station:DISL:MHPA:1,2013-01-03T09:00:00Z,30.6671,-87.9365,3.085,0.1,1111122 
DISL,ioos:station:DISL:MHPA:1,2013-01-03T09:30:00Z,30.6671,-87.9365,3.049,0.1,1111122 
DISL,ioos:station:DISL:MHPA:1,2013-01-03T10:00:00Z,30.6671,-87.9365,3.047,0.1,1111122 
DISL,ioos:station:DISL:MHPA:1,2013-01-03T10:30:00Z,30.6671,-87.9365,3.008,0.1,1111122 
DISL,ioos:station:DISL:MHPA:1,2013-01-03T11:00:00Z,30.6671,-87.9365,3.021,0.1,1111122 
DISL,ioos:station:DISL:MHPA:1,2013-01-03T11:30:00Z,30.6671,-87.9365,2.985,0.1,1111122 
DISL,ioos:station:DISL:MHPA:1,2013-01-03T12:00:00Z,30.6671,-87.9365,2.914,0.1,1111122 
DISL,ioos:station:DISL:MHPA:1,2013-01-03T12:30:00Z,30.6671,-87.9365,2.84,0.1,1111122 
DISL,ioos:station:DISL:MHPA:1,2013-01-03T13:00:00Z,30.6671,-87.9365,2.829,0.1,1111122 
DISL,ioos:station:DISL:MHPA:1,2013-01-03T13:30:00Z,30.6671,-87.9365,2.83,0.1,1111122 
DISL,ioos:station:DISL:MHPA:1,2013-01-03T14:00:00Z,30.6671,-87.9365,2.729,0.1,1111122 
DISL,ioos:station:DISL:MHPA:1,2013-01-03T14:30:00Z,30.6671,-87.9365,2.628,0.1,1111122 
DISL,ioos:station:DISL:MHPA:1,2013-01-03T15:00:00Z,30.6671,-87.9365,2.541,0.1,1111122 
DISL,ioos:station:DISL:MHPA:1,2013-01-03T15:30:00Z,30.6671,-87.9365,2.442,0.1,1111122 
DISL,ioos:station:DISL:MHPA:1,2013-01-03T16:00:00Z,30.6671,-87.9365,2.359,0.1,1111122 
DISL,ioos:station:DISL:MHPA:1,2013-01-03T16:30:00Z,30.6671,-87.9365,2.295,0.1,1111122 
DISL,ioos:station:DISL:MHPA:1,2013-01-03T17:00:00Z,30.6671,-87.9365,2.247,0.1,1111122 
DISL,ioos:station:DISL:MHPA:1,2013-01-03T17:30:00Z,30.6671,-87.9365,2.249,0.1,1111122 
DISL,ioos:station:DISL:MHPA:1,2013-01-03T18:00:00Z,30.6671,-87.9365,2.229,0.1,1111122 
DISL,ioos:station:DISL:MHPA:1,2013-01-03T18:30:00Z,30.6671,-87.9365,2.224,0.1,1111122 
DISL,ioos:station:DISL:MHPA:1,2013-01-03T19:00:00Z,30.6671,-87.9365,2.217,0.1,1111122 
DISL,ioos:station:DISL:MHPA:1,2013-01-03T19:30:00Z,30.6671,-87.9365,2.257,0.1,1111122 
DISL,ioos:station:DISL:MHPA:1,2013-01-03T20:00:00Z,30.6671,-87.9365,2.278,0.1,1111122 
DISL,ioos:station:DISL:MHPA:1,2013-01-03T20:30:00Z,30.6671,-87.9365,2.304,0.1,1111122 
DISL,ioos:station:DISL:MHPA:1,2013-01-03T21:00:00Z,30.6671,-87.9365,2.299,0.11,1111122 
DISL,ioos:station:DISL:MHPA:1,2013-01-03T21:30:00Z,30.6671,-87.9365,2.358,0.11,1111122 
DISL,ioos:station:DISL:MHPA:1,2013-01-03T22:00:00Z,30.6671,-87.9365,2.457,0.11,1111122 
DISL,ioos:station:DISL:MHPA:1,2013-01-03T22:30:00Z,30.6671,-87.9365,2.577,0.11,1111122 
DISL,ioos:station:DISL:MHPA:1,2013-01-03T23:00:00Z,30.6671,-87.9365,2.658,0.11,1111122 
DISL,ioos:station:DISL:MHPA:1,2013-01-03T23:30:00Z,30.6671,-87.9365,2.744,0.11,1111122 
DISL,ioos:station:DISL:MHPA:1,2013-01-04T00:00:00Z,30.6671,-87.9365,2.856,0.1,1111122 
DISL,ioos:station:DISL:MHPA:1,2013-01-04T00:30:00Z,30.6671,-87.9365,2.9,0.1,1111122 
DISL,ioos:station:DISL:MHPA:1,2013-01-04T01:00:00Z,30.6671,-87.9365,2.869,0.1,1111122 
DISL,ioos:station:DISL:MHPA:1,2013-01-04T01:30:00Z,30.6671,-87.9365,2.818,0.1,1111122 
DISL,ioos:station:DISL:MHPA:1,2013-01-04T02:00:00Z,30.6671,-87.9365,2.806,0.11,1111122 
DISL,ioos:station:DISL:MHPA:1,2013-01-04T02:30:00Z,30.6671,-87.9365,2.793,0.1,1111122 
DISL,ioos:station:DISL:MHPA:1,2013-01-04T03:00:00Z,30.6671,-87.9365,2.784,0.1,1111122 
DISL,ioos:station:DISL:MHPA:1,2013-01-04T03:30:00Z,30.6671,-87.9365,2.795,0.1,1111122 
DISL,ioos:station:DISL:MHPA:1,2013-01-04T04:00:00Z,30.6671,-87.9365,2.789,0.1,1111122 
DISL,ioos:station:DISL:MHPA:1,2013-01-04T04:30:00Z,30.6671,-87.9365,2.786,0.1,1111122 
DISL,ioos:station:DISL:MHPA:1,2013-01-04T05:00:00Z,30.6671,-87.9365,2.825,0.1,1111122 
DISL,ioos:station:DISL:MHPA:1,2013-01-04T05:30:00Z,30.6671,-87.9365,2.839,0.1,1111122 
DISL,ioos:station:DISL:MHPA:1,2013-01-04T06:00:00Z,30.6671,-87.9365,2.758,0.1,1111122 
DISL,ioos:station:DISL:MHPA:1,2013-01-04T06:30:00Z,30.6671,-87.9365,2.7,0.1,1111122 
DISL,ioos:station:DISL:MHPA:1,2013-01-04T07:00:00Z,30.6671,-87.9365,2.659,0.1,1111122 
DISL,ioos:station:DISL:MHPA:1,2013-01-04T07:30:00Z,30.6671,-87.9365,2.64,0.1,1111122 
DISL,ioos:station:DISL:MHPA:1,2013-01-04T08:00:00Z,30.6671,-87.9365,2.635,0.1,1111122 
DISL,ioos:station:DISL:MHPA:1,2013-01-04T08:30:00Z,30.6671,-87.9365,2.673,0.1,1111122 
DISL,ioos:station:DISL:MHPA:1,2013-01-04T09:00:00Z,30.6671,-87.9365,2.711,0.1,1111122 
DISL,ioos:station:DISL:MHPA:1,2013-01-04T09:30:00Z,30.6671,-87.9365,2.741,0.1,1111122 
DISL,ioos:station:DISL:MHPA:1,2013-01-04T10:00:00Z,30.6671,-87.9365,2.705,0.1,1111122 
DISL,ioos:station:DISL:MHPA:1,2013-01-04T10:30:00Z,30.6671,-87.9365,2.629,0.1,1111122 
DISL,ioos:station:DISL:MHPA:1,2013-01-04T11:00:00Z,30.6671,-87.9365,2.581,0.1,1111122 
DISL,ioos:station:DISL:MHPA:1,2013-01-04T11:30:00Z,30.6671,-87.9365,2.55,0.1,1111122 
DISL,ioos:station:DISL:MHPA:1,2013-01-04T12:00:00Z,30.6671,-87.9365,2.498,0.1,1111122 
DISL,ioos:station:DISL:MHPA:1,2013-01-04T12:30:00Z,30.6671,-87.9365,2.447,0.1,1111122 
DISL,ioos:station:DISL:MHPA:1,2013-01-04T13:00:00Z,30.6671,-87.9365,2.426,0.1,1111122 
DISL,ioos:station:DISL:MHPA:1,2013-01-04T13:30:00Z,30.6671,-87.9365,2.43,0.1,1111122 
DISL,ioos:station:DISL:MHPA:1,2013-01-04T14:00:00Z,30.6671,-87.9365,2.424,0.1,1111122 
DISL,ioos:station:DISL:MHPA:1,2013-01-04T14:30:00Z,30.6671,-87.9365,2.411,0.1,1111122 
DISL,ioos:station:DISL:MHPA:1,2013-01-04T15:00:00Z,30.6671,-87.9365,2.403,0.1,1111122 
DISL,ioos:station:DISL:MHPA:1,2013-01-04T15:30:00Z,30.6671,-87.9365,2.407,0.1,1111122 
DISL,ioos:station:DISL:MHPA:1,2013-01-04T16:00:00Z,30.6671,-87.9365,2.446,0.1,1111122 
DISL,ioos:station:DISL:MHPA:1,2013-01-04T16:30:00Z,30.6671,-87.9365,2.467,0.1,1111122 
DISL,ioos:station:DISL:MHPA:1,2013-01-04T17:00:00Z,30.6671,-87.9365,2.494,0.1,1111122 
DISL,ioos:station:DISL:MHPA:1,2013-01-04T17:30:00Z,30.6671,-87.9365,2.503,0.1,1111122 
DISL,ioos:station:DISL:MHPA:1,2013-01-04T18:00:00Z,30.6671,-87.9365,2.516,0.1,1111122 
DISL,ioos:station:DISL:MHPA:1,2013-01-04T18:30:00Z,30.6671,-87.9365,2.607,0.1,1111122 
DISL,ioos:station:DISL:MHPA:1,2013-01-04T19:00:00Z,30.6671,-87.9365,2.77,0.1,1111122 
DISL,ioos:station:DISL:MHPA:1,2013-01-04T19:30:00Z,30.6671,-87.9365,2.84,0.1,1111122 
DISL,ioos:station:DISL:MHPA:1,2013-01-04T20:00:00Z,30.6671,-87.9365,2.84,0.09,1111122 
DISL,ioos:station:DISL:MHPA:1,2013-01-04T20:30:00Z,30.6671,-87.9365,0.7,0.1,11111222 
DISL,ioos:station:DISL:MHPA:1,2013-01-04T21:00:00Z,30.6671,-87.9365,3.005,0.11,1111122 
DISL,ioos:station:DISL:MHPA:1,2013-01-04T21:30:00Z,30.6671,-87.9365,3.084,0.1,1111122 
DISL,ioos:station:DISL:MHPA:1,2013-01-04T22:00:00Z,30.6671,-87.9365,3.223,0.1,1111122 
DISL,ioos:station:DISL:MHPA:1,2013-01-04T22:30:00Z,30.6671,-87.9365,3.315,0.1,1111122 
DISL,ioos:station:DISL:MHPA:1,2013-01-04T23:00:00Z,30.6671,-87.9365,3.354,0.1,1111122 
DISL,ioos:station:DISL:MHPA:1,2013-01-04T23:30:00Z,30.6671,-87.9365,3.503,0.1,1111122 
DISL,ioos:station:DISL:MHPA:1,2013-01-05T00:00:00Z,30.6671,-87.9365,3.546,0.1,1111122 
DISL,ioos:station:DISL:MHPA:1,2013-01-05T00:30:00Z,30.6671,-87.9365,3.524,0.1,1111122 
DISL,ioos:station:DISL:MHPA:1,2013-01-05T01:00:00Z,30.6671,-87.9365,3.575,0.1,1111122 
DISL,ioos:station:DISL:MHPA:1,2013-01-05T01:30:00Z,30.6671,-87.9365,3.558,0.1,1111122 
DISL,ioos:station:DISL:MHPA:1,2013-01-05T02:00:00Z,30.6671,-87.9365,3.549,0.1,1111122 
DISL,ioos:station:DISL:MHPA:1,2013-01-05T02:30:00Z,30.6671,-87.9365,3.465,0.1,1111122 
DISL,ioos:station:DISL:MHPA:1,2013-01-05T03:00:00Z,30.6671,-87.9365,3.384,0.1,1111122 
DISL,ioos:station:DISL:MHPA:1,2013-01-05T03:30:00Z,30.6671,-87.9365,3.321,0.1,1111122 
DISL,ioos:station:DISL:MHPA:1,2013-01-05T04:00:00Z,30.6671,-87.9365,3.24,0.1,1111122 
DISL,ioos:station:DISL:MHPA:1,2013-01-05T04:30:00Z,30.6671,-87.9365,3.157,0.1,1111122 
DISL,ioos:station:DISL:MHPA:1,2013-01-05T05:00:00Z,30.6671,-87.9365,3.069,0.1,1111122 
DISL,ioos:station:DISL:MHPA:1,2013-01-05T05:30:00Z,30.6671,-87.9365,2.996,0.1,1111122 
DISL,ioos:station:DISL:MHPA:1,2013-01-05T06:00:00Z,30.6671,-87.9365,2.913,0.1,1111122 
DISL,ioos:station:DISL:MHPA:1,2013-01-05T06:30:00Z,30.6671,-87.9365,2.826,0.1,1111122 
DISL,ioos:station:DISL:MHPA:1,2013-01-05T07:00:00Z,30.6671,-87.9365,2.749,0.1,1111122 
DISL,ioos:station:DISL:MHPA:1,2013-01-05T07:30:00Z,30.6671,-87.9365,2.697,0.1,1111122 
DISL,ioos:station:DISL:MHPA:1,2013-01-05T08:00:00Z,30.6671,-87.9365,2.664,0.1,1111122 
DISL,ioos:station:DISL:MHPA:1,2013-01-05T08:30:00Z,30.6671,-87.9365,2.641,0.1,1111122 
DISL,ioos:station:DISL:MHPA:1,2013-01-05T09:00:00Z,30.6671,-87.9365,2.619,0.1,1111122 
DISL,ioos:station:DISL:MHPA:1,2013-01-05T09:30:00Z,30.6671,-87.9365,2.605,0.1,1111122 
DISL,ioos:station:DISL:MHPA:1,2013-01-05T10:00:00Z,30.6671,-87.9365,2.568,0.1,1111122 
DISL,ioos:station:DISL:MHPA:1,2013-01-05T10:30:00Z,30.6671,-87.9365,2.517,0.1,1111122 
DISL,ioos:station:DISL:MHPA:1,2013-01-05T11:00:00Z,30.6671,-87.9365,2.512,0.1,1111122 
DISL,ioos:station:DISL:MHPA:1,2013-01-05T11:30:00Z,30.6671,-87.9365,2.534,0.1,1111122 
DISL,ioos:station:DISL:MHPA:1,2013-01-05T12:00:00Z,30.6671,-87.9365,2.52,0.1,1111122 
DISL,ioos:station:DISL:MHPA:1,2013-01-05T12:30:00Z,30.6671,-87.9365,2.478,0.1,1111122 
DISL,ioos:station:DISL:MHPA:1,2013-01-05T13:00:00Z,30.6671,-87.9365,2.458,0.1,1111122 
DISL,ioos:station:DISL:MHPA:1,2013-01-05T13:30:00Z,30.6671,-87.9365,2.487,0.1,1111122 
DISL,ioos:station:DISL:MHPA:1,2013-01-05T14:00:00Z,30.6671,-87.9365,2.521,0.1,1111122 
DISL,ioos:station:DISL:MHPA:1,2013-01-05T14:30:00Z,30.6671,-87.9365,2.543,0.11,1111122 
DISL,ioos:station:DISL:MHPA:1,2013-01-05T15:00:00Z,30.6671,-87.9365,2.605,0.11,1111122 
DISL,ioos:station:DISL:MHPA:1,2013-01-05T15:30:00Z,30.6671,-87.9365,2.648,0.11,1111122 
DISL,ioos:station:DISL:MHPA:1,2013-01-05T16:00:00Z,30.6671,-87.9365,2.652,0.11,1111122 
DISL,ioos:station:DISL:MHPA:1,2013-01-05T16:30:00Z,30.6671,-87.9365,2.661,0.1,1111122 
DISL,ioos:station:DISL:MHPA:1,2013-01-05T17:00:00Z,30.6671,-87.9365,2.725,0.11,1111122 
DISL,ioos:station:DISL:MHPA:1,2013-01-05T17:30:00Z,30.6671,-87.9365,2.81,0.1,1111122 
DISL,ioos:station:DISL:MHPA:1,2013-01-05T18:00:00Z,30.6671,-87.9365,2.819,0.1,1111122 
DISL,ioos:station:DISL:MHPA:1,2013-01-05T18:30:00Z,30.6671,-87.9365,2.889,0.1,1111122 
DISL,ioos:station:DISL:MHPA:1,2013-01-05T19:00:00Z,30.6671,-87.9365,3.028,0.1,1111122 
DISL,ioos:station:DISL:MHPA:1,2013-01-05T19:30:00Z,30.6671,-87.9365,3.11,0.1,1111122 
DISL,ioos:station:DISL:MHPA:1,2013-01-05T20:00:00Z,30.6671,-87.9365,3.226,0.1,1111122 
DISL,ioos:station:DISL:MHPA:1,2013-01-05T20:30:00Z,30.6671,-87.9365,3.287,0.1,1111122 
DISL,ioos:station:DISL:MHPA:1,2013-01-05T21:00:00Z,30.6671,-87.9365,3.364,0.1,1111122 
DISL,ioos:station:DISL:MHPA:1,2013-01-05T21:30:00Z,30.6671,-87.9365,3.425,0.1,1111122 
DISL,ioos:station:DISL:MHPA:1,2013-01-05T22:00:00Z,30.6671,-87.9365,3.48,0.1,1111122 
DISL,ioos:station:DISL:MHPA:1,2013-01-05T22:30:00Z,30.6671,-87.9365,3.478,0.1,1111122 
DISL,ioos:station:DISL:MHPA:1,2013-01-05T23:00:00Z,30.6671,-87.9365,3.515,0.1,1111122 
DISL,ioos:station:DISL:MHPA:1,2013-01-05T23:30:00Z,30.6671,-87.9365,3.518,0.1,1111122 
DISL,ioos:station:DISL:MHPA:1,2013-01-06T00:00:00Z,30.6671,-87.9365,3.511,0.1,1111122 
DISL,ioos:station:DISL:MHPA:1,2013-01-06T00:30:00Z,30.6671,-87.9365,3.509,0.1,1111122 
DISL,ioos:station:DISL:MHPA:1,2013-01-06T01:00:00Z,30.6671,-87.9365,3.522,0.09,1111122 
DISL,ioos:station:DISL:MHPA:1,2013-01-06T01:30:00Z,30.6671,-87.9365,3.468,0.09,1111122 
DISL,ioos:station:DISL:MHPA:1,2013-01-06T02:00:00Z,30.6671,-87.9365,3.421,0.09,1111122 
DISL,ioos:station:DISL:MHPA:1,2013-01-06T02:30:00Z,30.6671,-87.9365,3.389,0.09,1111122 
DISL,ioos:station:DISL:MHPA:1,2013-01-06T03:00:00Z,30.6671,-87.9365,3.336,0.09,1111122 
DISL,ioos:station:DISL:MHPA:1,2013-01-06T03:30:00Z,30.6671,-87.9365,3.242,0.09,1111122 
DISL,ioos:station:DISL:MHPA:1,2013-01-06T04:00:00Z,30.6671,-87.9365,3.177,0.09,1111122 
DISL,ioos:station:DISL:MHPA:1,2013-01-06T04:30:00Z,30.6671,-87.9365,3.139,0.1,1111122 
DISL,ioos:station:DISL:MHPA:1,2013-01-06T05:00:00Z,30.6671,-87.9365,3.112,0.1,1111122 
DISL,ioos:station:DISL:MHPA:1,2013-01-06T05:30:00Z,30.6671,-87.9365,3.053,0.1,1111122 
DISL,ioos:station:DISL:MHPA:1,2013-01-06T06:00:00Z,30.6671,-87.9365,3.015,0.1,1111122 
DISL,ioos:station:DISL:MHPA:1,2013-01-06T06:30:00Z,30.6671,-87.9365,2.979,0.1,1111122 
DISL,ioos:station:DISL:MHPA:1,2013-01-06T07:00:00Z,30.6671,-87.9365,2.959,0.1,1111122 
DISL,ioos:station:DISL:MHPA:1,2013-01-06T07:30:00Z,30.6671,-87.9365,2.945,0.1,1111122 
DISL,ioos:station:DISL:MHPA:1,2013-01-06T08:00:00Z,30.6671,-87.9365,2.902,0.1,1111122 
DISL,ioos:station:DISL:MHPA:1,2013-01-06T08:30:00Z,30.6671,-87.9365,2.837,0.1,1111122 
DISL,ioos:station:DISL:MHPA:1,2013-01-06T09:00:00Z,30.6671,-87.9365,2.81,0.1,1111122 
DISL,ioos:station:DISL:MHPA:1,2013-01-06T09:30:00Z,30.6671,-87.9365,2.785,0.1,1111122 
DISL,ioos:station:DISL:MHPA:1,2013-01-06T10:00:00Z,30.6671,-87.9365,2.716,0.1,1111122 
DISL,ioos:station:DISL:MHPA:1,2013-01-06T10:30:00Z,30.6671,-87.9365,2.67,0.1,1111122 
DISL,ioos:station:DISL:MHPA:1,2013-01-06T11:00:00Z,30.6671,-87.9365,2.631,0.1,1111122 
DISL,ioos:station:DISL:MHPA:1,2013-01-06T11:30:00Z,30.6671,-87.9365,2.594,0.1,1111122 
DISL,ioos:station:DISL:MHPA:1,2013-01-06T12:00:00Z,30.6671,-87.9365,2.526,0.1,1111122 
DISL,ioos:station:DISL:MHPA:1,2013-01-06T12:30:00Z,30.6671,-87.9365,2.477,0.1,1111122 
DISL,ioos:station:DISL:MHPA:1,2013-01-06T13:00:00Z,30.6671,-87.9365,2.469,0.1,1111122 
DISL,ioos:station:DISL:MHPA:1,2013-01-06T13:30:00Z,30.6671,-87.9365,2.483,0.1,1111122 
DISL,ioos:station:DISL:MHPA:1,2013-01-06T14:00:00Z,30.6671,-87.9365,2.522,0.1,1111122 
DISL,ioos:station:DISL:MHPA:1,2013-01-06T14:30:00Z,30.6671,-87.9365,2.515,0.1,1111122 
DISL,ioos:station:DISL:MHPA:1,2013-01-06T15:00:00Z,30.6671,-87.9365,2.46,0.1,1111122 
DISL,ioos:station:DISL:MHPA:1,2013-01-06T15:30:00Z,30.6671,-87.9365,2.426,0.1,1111122 
DISL,ioos:station:DISL:MHPA:1,2013-01-06T16:00:00Z,30.6671,-87.9365,2.404,0.1,1111122 
DISL,ioos:station:DISL:MHPA:1,2013-01-06T16:30:00Z,30.6671,-87.9365,2.38,0.1,1111122 
DISL,ioos:station:DISL:MHPA:1,2013-01-06T17:00:00Z,30.6671,-87.9365,2.359,0.1,1111122 
DISL,ioos:station:DISL:MHPA:1,2013-01-06T17:30:00Z,30.6671,-87.9365,2.468,0.1,1111122 
DISL,ioos:station:DISL:MHPA:1,2013-01-06T18:00:00Z,30.6671,-87.9365,2.591,0.1,1111122 
DISL,ioos:station:DISL:MHPA:1,2013-01-06T18:30:00Z,30.6671,-87.9365,2.577,0.1,1111122 
DISL,ioos:station:DISL:MHPA:1,2013-01-06T19:00:00Z,30.6671,-87.9365,2.553,0.1,1111122 
DISL,ioos:station:DISL:MHPA:1,2013-01-06T19:30:00Z,30.6671,-87.9365,2.586,0.1,1111122 
DISL,ioos:station:DISL:MHPA:1,2013-01-06T20:00:00Z,30.6671,-87.9365,2.61,0.1,1111122 
DISL,ioos:station:DISL:MHPA:1,2013-01-06T20:30:00Z,30.6671,-87.9365,2.621,0.1,1111122 
DISL,ioos:station:DISL:MHPA:1,2013-01-06T21:00:00Z,30.6671,-87.9365,2.646,0.1,1111122 
DISL,ioos:station:DISL:MHPA:1,2013-01-06T21:30:00Z,30.6671,-87.9365,2.75,0.1,1111122 
DISL,ioos:station:DISL:MHPA:1,2013-01-06T22:00:00Z,30.6671,-87.9365,2.927,0.1,1111122 
DISL,ioos:station:DISL:MHPA:1,2013-01-06T22:30:00Z,30.6671,-87.9365,3.114,0.1,1111122 
DISL,ioos:station:DISL:MHPA:1,2013-01-06T23:00:00Z,30.6671,-87.9365,3.271,0.1,1111122 